This is the latest recevied weather packets stored in our database for station/object N2OCK. If no packets are shown the sender has not sent any weather packets the latest 10 day(s).
| Time | Temp. | Humidity | Pressure | Rain* | Wind** | Luminosity | Snow |
|---|---|---|---|---|---|---|---|
| 1777820560 | 12.22° C | 45% | 1010.9 hPa | 0 mm | - | 374 W/m² | - |
| 1777820257 | 11.67° C | 48% | 1010.9 hPa | 0 mm | - | 154 W/m² | - |
| 1777819955 | 11.67° C | 46% | 1010.9 hPa | 0 mm | - | 220 W/m² | - |
| 1777819652 | 11.11° C | 47% | 1011 hPa | 0 mm | - | 655 W/m² | - |
| 1777819350 | 11.11° C | 49% | 1010.9 hPa | 0 mm | - | 653 W/m² | - |
| 1777819046 | 11.11° C | 50% | 1010.9 hPa | 0 mm | - | 640 W/m² | - |
| 1777818744 | 11.11° C | 49% | 1010.9 hPa | 0 mm | - | 620 W/m² | - |
| 1777818440 | 11.11° C | 50% | 1010.9 hPa | 0 mm | - | 638 W/m² | - |
| 1777818136 | 11.11° C | 52% | 1011 hPa | 0 mm | - | 520 W/m² | - |
| 1777817833 | 11.11° C | 50% | 1010.8 hPa | 0 mm | - | 585 W/m² | - |
| 1777817531 | 11.11° C | 51% | 1011 hPa | 0 mm | - | 577 W/m² | - |
| 1777817227 | 11.11° C | 52% | 1010.8 hPa | 0 mm | - | 563 W/m² | - |
| 1777816925 | 10.56° C | 52% | 1010.9 hPa | 0 mm | - | 554 W/m² | - |
| 1777816621 | 10.56° C | 52% | 1010.9 hPa | 0 mm | - | 542 W/m² | - |
| 1777816318 | 10.56° C | 52% | 1010.8 hPa | 0 mm | - | 530 W/m² | - |
| 1777816015 | 10° C | 53% | 1010.9 hPa | 0 mm | - | 519 W/m² | - |
| 1777815713 | 10.56° C | 52% | 1011.1 hPa | 0 mm | - | 505 W/m² | - |
| 1777815410 | 10° C | 54% | 1010.9 hPa | 0 mm | - | 493 W/m² | - |
| 1777815107 | 10° C | 55% | 1011.2 hPa | 0 mm | - | 479 W/m² | - |
| 1777814803 | 10° C | 56% | 1011 hPa | 0 mm | - | 468 W/m² | - |
| 1777814500 | 9.44° C | 57% | 1010.8 hPa | 0 mm | - | 454 W/m² | - |
| 1777814197 | 9.44° C | 56% | 1011 hPa | 0 mm | - | 440 W/m² | - |
| 1777813894 | 9.44° C | 56% | 1011 hPa | 0 mm | - | 425 W/m² | - |
| 1777813592 | 8.89° C | 57% | 1010.9 hPa | 0 mm | - | 412 W/m² | - |
| 1777813289 | 8.89° C | 57% | 1011 hPa | 0 mm | - | 396 W/m² | - |
* Rain latest hour (hover to see other rain measurements)
** Current wind speed in m/s (hover to see current wind gust speed)